Temp_Advection
nan nan nan nan nan nan nan nan nan nan nan nan nan nan nan nan nan nan nan nan nan nan nan nan nan nan nan nan nan nan nan nan
nan -0 0 -0 -0 -0 -0 -0 -0 -0 -1 -1 -1 -1 -1 -0 -0 -1 -1 -0 -0 -0 -0 -0 -0 -0 -1 -2 -1 -0 0 nan
nan -0 -0 -0 0 -0 -0 -0 -0 -0 -1 -1 -1 -0 0 0 0 -1 -1 -1 -1 -1 -1 -1 -1 -0 -0 -1 -2 -1 -0 nan
nan -0 -0 0 -0 0 0 0 0 0 0 -0 -0 -0 0 -0 0 0 -0 -0 -1 -0 -0 -1 -1 -1 -0 -0 -0 -0 -0 nan
nan -0 -0 0 -0 0 -0 0 0 0 0 0 -0 -0 -0 -0 -0 0 0 0 0 0 -0 0 0 -0 -0 -0 -0 -0 -1 nan
nan -0 -0 -0 -0 -0 -0 -0 0 -0 0 0 -0 -0 -0 -0 -0 -0 -0 -0 -0 -0 -0 -0 -0 -0 -0 -0 -0 -0 -1 nan
nan -0 -0 -0 -0 -0 -0 -0 0 0 0 0 0 -0 -0 -0 -0 -0 -0 -0 -0 -0 -0 -0 -0 -0 -0 -0 -0 -0 -0 nan
nan 0 -0 -0 -0 -0 -0 0 -0 0 0 0 0 -0 -0 -0 -0 -0 -0 0 0 -0 -0 -0 -0 -0 -0 -0 0 -0 -0 nan
nan 0 0 -0 -0 -0 -0 0 -0 -0 0 0 0 0 -0 -0 -0 -0 0 0 0 -0 -0 -0 -0 -0 -0 -0 -0 -0 -0 nan
nan 0 0 0 0 -0 -0 -0 -0 -0 0 0 0 0 0 -0 -0 -0 0 0 0 0 0 -0 -0 -0 -0 -0 -1 -1 -0 nan
nan 0 0 0 0 0 0 0 0 0 0 0 0 0 0 -0 -0 -0 -0 0 0 0 0 -0 -0 -0 -1 -1 -1 -1 -1 nan
nan 0 0 0 0 0 0 0 0 0 0 0 0 0 0 -0 -0 -0 -0 0 0 0 0 -0 -0 -0 -1 -1 -1 -1 -1 nan
nan 0 0 0 -0 -0 -0 -0 -0 0 0 0 1 0 0 0 -0 -0 -0 0 1 0 0 -0 -0 -0 -0 -1 -1 -1 -1 nan
nan 0 0 -0 -0 0 -0 -0 0 0 0 0 1 1 1 0 0 -0 -0 0 0 0 0 0 -0 -0 -0 -1 -1 -1 -0 nan
nan 0 0 -0 -0 -0 -0 -0 -0 0 0 0 0 1 0 0 0 0 -0 0 0 1 0 0 -0 -0 -0 -0 -1 -0 -2 nan
nan 0 -0 0 -0 -0 -0 -0 -0 -0 -0 0 0 0 0 0 0 0 0 0 0 0 0 0 0 -0 -0 -0 0 -0 -1 nan
nan -0 -0 -0 -0 -0 -0 -0 -0 -0 -0 -0 -0 0 0 0 0 0 -0 0 0 1 0 0 -0 -0 -0 -0 -0 -0 -0 nan
nan -0 0 0 -0 0 -0 -0 -0 -0 -0 -0 -0 -0 0 0 0 0 -0 0 0 0 0 -0 -0 -0 -0 0 0 -0 -0 nan
nan -0 -0 0 -0 -0 0 -0 -0 -0 -0 -0 -0 -0 -0 0 0 -0 0 0 0 0 0 0 -0 -0 -0 0 -0 -0 -0 nan
nan nan nan nan nan nan nan nan nan nan nan nan nan nan nan nan nan nan nan nan nan nan nan nan nan nan nan nan nan nan nan nan
Wind_Speed
7 4 7 9 7 7 8 9 10 13 15 16 18 20 19 22 23 18 22 21 20 21 22 22 23 23 23 22 20 17 18 16
6 5 4 4 7 9 10 10 12 13 14 15 19 17 16 15 17 19 20 20 20 20 21 21 22 22 23 24 21 18 14 11
5 4 4 3 4 8 11 14 14 16 14 18 15 12 15 14 16 22 23 20 21 21 21 21 18 16 17 20 21 11 11 11
3 4 3 4 4 6 7 9 7 9 11 14 13 15 14 18 17 20 18 19 19 16 18 20 16 13 13 14 11 13 14 14
3 2 3 4 5 7 7 7 9 9 11 14 14 15 14 14 15 15 16 16 15 17 15 14 16 16 14 14 15 15 14 13
5 2 3 6 4 6 7 8 9 9 11 12 14 13 14 15 14 16 15 15 16 15 16 18 17 16 16 16 16 15 14 14
5 2 2 4 6 7 8 8 9 11 11 12 15 14 14 15 15 15 16 16 16 17 17 16 17 17 16 17 15 16 17 16
6 3 1 4 6 10 9 9 10 10 11 13 14 14 14 15 16 15 16 16 17 19 16 17 17 17 17 16 17 18 17 17
6 3 1 4 7 10 9 10 10 10 12 13 14 15 15 16 15 16 16 17 19 16 16 16 17 17 18 18 18 17 17 17
7 4 2 5 8 9 10 9 10 10 12 12 14 15 15 16 16 16 16 18 18 16 17 18 18 18 18 18 18 18 17 18
7 4 2 5 8 10 10 11 11 12 13 13 14 15 16 16 16 16 18 18 17 17 18 18 19 20 20 20 19 19 19 19
7 3 3 6 10 11 11 12 12 13 14 14 15 15 17 17 16 17 18 18 19 17 19 17 19 21 20 21 21 22 21 19
6 3 3 6 9 11 11 12 13 13 14 15 17 17 18 17 17 17 18 18 20 21 20 19 19 18 20 20 21 24 22 20
6 2 3 6 8 10 11 13 13 15 15 17 17 18 19 18 18 18 18 20 21 20 20 21 20 17 18 19 16 15 10 13
4 1 3 7 12 10 11 12 13 14 16 17 17 18 19 19 19 19 20 21 23 26 26 24 24 20 16 14 9 8 17 6
5 1 4 8 11 10 12 13 15 16 17 18 19 18 18 19 19 19 21 22 23 21 24 26 26 23 19 16 20 20 10 12
4 2 5 8 9 10 11 13 14 16 17 20 18 18 18 19 19 21 21 21 22 24 27 26 24 24 22 20 18 19 22 24
3 3 6 8 9 11 12 14 16 18 19 20 20 19 20 19 22 22 22 23 26 31 28 26 25 25 25 25 23 18 18 22
3 3 6 8 9 11 13 14 16 17 19 20 22 22 21 22 24 24 24 26 26 28 29 28 26 25 24 24 25 26 26 24
3 4 6 8 9 11 13 14 15 16 18 20 20 22 22 24 25 25 25 27 28 31 30 27 24 23 22 23 24 26 27 28
Wind_Direction
111 77 26 15 14 2 348 339 333 325 325 328 331 332 333 341 334 333 332 326 323 319 316 313 311 308 305 299 294 289 286 286
105 92 82 81 336 346 343 343 335 332 329 332 337 0 325 333 337 307 323 323 321 317 313 309 308 308 307 299 295 293 293 291
112 91 56 43 8 324 356 340 350 358 347 320 347 324 325 317 318 320 334 330 328 324 322 314 313 320 324 311 315 319 286 277
123 94 47 33 7 351 341 336 326 324 327 330 338 326 329 327 332 324 331 324 334 324 327 330 340 302 300 300 296 280 282 281
150 94 50 51 347 5 332 335 320 320 324 327 336 333 325 328 326 322 320 323 324 321 321 314 299 305 300 293 288 288 283 274
145 142 39 12 31 344 344 329 322 319 316 330 333 333 328 324 324 320 320 319 318 318 312 308 311 305 300 297 293 288 284 278
157 140 46 5 6 344 335 334 320 327 328 324 331 334 328 326 322 321 317 317 317 311 313 311 307 306 300 297 294 288 283 278
171 165 23 352 348 344 343 324 325 326 324 316 329 329 324 326 322 316 316 315 307 311 311 310 307 306 302 298 285 283 279 276
175 187 302 344 346 330 333 321 330 322 321 321 323 328 323 324 321 316 314 309 313 313 309 311 308 304 298 296 293 289 281 274
177 193 264 329 327 335 330 318 321 319 318 321 317 324 321 324 319 314 309 314 316 314 312 307 303 301 296 294 288 284 281 275
185 200 264 314 322 331 325 319 326 317 317 315 310 325 318 320 318 311 310 313 310 304 303 302 301 301 298 296 289 282 274 270
190 202 275 324 340 327 321 316 314 312 313 310 316 319 317 313 315 310 314 309 305 301 295 299 298 298 296 291 288 284 275 264
189 225 295 337 330 330 324 322 318 313 309 311 314 311 314 314 315 312 312 308 302 302 302 301 302 298 298 297 291 283 269 257
191 221 325 336 338 337 331 325 321 317 321 313 313 311 312 314 309 309 309 307 305 304 300 299 300 299 295 300 307 306 277 246
183 216 329 342 348 335 333 334 325 322 319 320 312 314 312 311 308 307 311 307 304 302 302 298 298 294 284 271 295 269 336 276
173 160 356 344 348 350 341 337 332 327 323 318 320 316 314 314 312 311 311 308 304 298 297 291 291 285 280 266 257 262 279 290
169 65 4 357 356 352 350 339 334 329 324 325 324 321 319 318 316 312 309 306 302 297 295 291 289 280 276 269 264 258 254 255
130 39 1 357 357 351 350 344 336 331 328 330 326 326 323 321 316 317 314 310 303 300 301 297 290 282 272 267 258 249 246 245
97 21 358 357 357 356 350 341 338 334 332 331 331 326 325 322 323 320 317 311 307 306 305 301 294 282 271 264 258 254 249 245
76 22 7 5 0 355 347 342 340 338 335 333 331 327 325 325 324 323 320 312 311 311 310 306 295 284 271 263 257 249 245 241
Height
1528 1528 1525 1524 1523 1522 1521 1520 1518 1516 1513 1511 1509 1506 1503 1500 1498 1495 1493 1490 1488 1485 1483 1481 1479 1477 1476 1475 1475 1476 1475 1475
1527 1527 1527 1528 1525 1522 1520 1519 1517 1515 1512 1510 1508 1504 1504 1502 1498 1494 1491 1488 1485 1483 1480 1478 1476 1474 1472 1471 1471 1472 1472 1474
1526 1527 1526 1526 1526 1523 1519 1517 1516 1513 1512 1510 1507 1507 1503 1501 1496 1491 1488 1485 1482 1479 1477 1475 1474 1472 1471 1469 1468 1469 1473 1472
1527 1526 1525 1526 1526 1524 1523 1520 1519 1516 1512 1508 1506 1504 1501 1497 1495 1491 1488 1485 1481 1479 1476 1473 1473 1472 1471 1470 1470 1469 1467 1467
1527 1525 1525 1525 1524 1523 1523 1521 1518 1516 1512 1507 1504 1501 1500 1497 1494 1492 1488 1485 1482 1479 1476 1474 1470 1467 1466 1465 1465 1463 1463 1464
1526 1526 1524 1522 1523 1523 1521 1519 1516 1514 1510 1506 1502 1500 1498 1495 1493 1490 1487 1484 1480 1478 1474 1469 1467 1465 1463 1460 1459 1460 1460 1460
1525 1525 1523 1523 1522 1520 1518 1516 1515 1510 1509 1505 1499 1497 1495 1492 1490 1487 1485 1482 1478 1473 1469 1467 1464 1462 1460 1458 1457 1458 1457 1456
1523 1524 1522 1521 1521 1517 1515 1515 1512 1510 1508 1503 1498 1495 1493 1490 1487 1485 1483 1480 1474 1468 1466 1463 1461 1459 1457 1456 1454 1452 1452 1452
1522 1522 1521 1520 1519 1517 1515 1514 1510 1509 1506 1502 1498 1494 1491 1487 1485 1483 1480 1476 1469 1466 1464 1462 1460 1457 1455 1452 1450 1449 1449 1448
1522 1522 1521 1518 1517 1515 1513 1511 1507 1507 1504 1501 1497 1492 1489 1485 1483 1481 1477 1472 1467 1466 1463 1460 1457 1454 1451 1449 1447 1445 1444 1443
1521 1520 1520 1518 1516 1514 1512 1509 1507 1505 1502 1499 1495 1490 1487 1483 1480 1478 1474 1470 1467 1464 1461 1457 1454 1450 1446 1444 1442 1440 1439 1439
1520 1520 1518 1516 1516 1515 1512 1509 1506 1503 1500 1497 1492 1489 1485 1481 1478 1475 1471 1468 1464 1461 1456 1453 1450 1446 1443 1439 1437 1434 1433 1433
1519 1518 1517 1517 1516 1513 1510 1507 1504 1501 1498 1494 1490 1487 1483 1478 1475 1471 1468 1465 1461 1456 1451 1448 1445 1443 1439 1436 1432 1427 1425 1426
1518 1518 1517 1516 1514 1510 1508 1505 1502 1499 1496 1492 1489 1484 1480 1476 1472 1468 1465 1461 1457 1452 1448 1444 1441 1439 1436 1433 1427 1423 1421 1422
1518 1518 1516 1513 1510 1510 1507 1504 1501 1497 1494 1490 1486 1482 1477 1473 1468 1464 1460 1457 1451 1447 1443 1439 1435 1434 1433 1432 1428 1423 1420 1419
1517 1516 1515 1513 1509 1508 1505 1503 1499 1496 1492 1488 1483 1479 1475 1470 1465 1460 1456 1452 1447 1443 1439 1435 1432 1428 1428 1427 1426 1426 1424 1420
1516 1515 1514 1512 1509 1507 1504 1501 1498 1494 1490 1485 1481 1476 1472 1467 1462 1456 1451 1447 1442 1437 1433 1429 1425 1423 1421 1421 1420 1420 1420 1420
1516 1516 1514 1512 1509 1507 1504 1500 1497 1493 1488 1483 1478 1473 1468 1463 1458 1452 1447 1442 1436 1430 1426 1421 1418 1415 1414 1413 1412 1413 1412 1414
1517 1516 1515 1512 1510 1507 1504 1500 1496 1492 1487 1482 1476 1470 1465 1459 1453 1447 1442 1436 1430 1424 1418 1414 1410 1407 1405 1404 1404 1404 1406 1408
1517 1517 1515 1513 1510 1507 1504 1500 1496 1491 1486 1480 1475 1468 1462 1456 1449 1443 1437 1430 1423 1418 1411 1406 1402 1399 1396 1395 1395 1395 1397 1399